Marysville, OH

2:04 AM EDT on April 24, 2017 (GMT -0400)
Marysville

Weather History for KMRT - July, 2013

Change the Weather History Date:

Monday, July 22, 2013

  Actual Average (KDLZ) Record (KDLZ)
Temperature  
Mean Temperature 70 °F -  
Max Temperature 75 °F 84 °F 95 °F (1955)
Min Temperature 65 °F 61 °F 47 °F (1970)
Cooling Degree Days 5    
Growing Degree Days 20 (Base 50)    
Moisture  
Dew Point 66 °F    
Average Humidity 84    
Maximum Humidity 93    
Minimum Humidity 69    
Precipitation  
Precipitation 0.00 in - - ()
Sea Level Pressure  
Sea Level Pressure 29.87 in    
Wind  
Wind Speed 2 mph (East)    
Max Wind Speed 12 mph    
Max Gust Speed 20 mph    
Visibility 8 miles    
Events      
Averages and records for this station are not official NWS values.
T = Trace of Precipitation, MM = Missing Value Source: NWS Daily Summary

Daily Weather History Graph

Daily Weather History Graph

Search for Another Location

Airport or City:

Trip Planner

Search our weather history database for the weather conditions in past years. The results will help you decide how hot, cold, wet, or windy it might be!

Date:

Astronomy

Jul. 22, 2013 Rise Set
Actual Time 6:22 AM EDT 8:56 PM EDT
Civil Twilight 5:51 AM EDT 9:28 PM EDT
Nautical Twilight 5:12 AM EDT 10:06 PM EDT
Astronomical Twilight 4:28 AM EDT 10:50 PM EDT
Moon 8:41 PM EDT (7/22) 6:17 AM EDT (7/22)
Length of Visible Light 15h 36m
Length of Day
14h 34m
Full, 100% of the Moon is Illuminated
Jul 22
Full
Jul 22
Full
Jul 29
Last Quarter
Aug 6
New
Aug 14
First Quarter

Hourly Weather History & Observations

Time (EDT) Temp. Dew Point Humidity Pressure Visibility Wind Dir Wind Speed Gust Speed Precip Events Conditions
12:13 AM 71.8 °F 66.6 °F 84% 29.97 in 10.0 mi Calm Calm - N/A   Clear
12:34 AM 71.6 °F 66.6 °F 84% 29.96 in 10.0 mi East 3.5 mph - N/A   Clear
12:53 AM 71.6 °F 66.2 °F 83% 29.96 in 10.0 mi East 3.5 mph - N/A   Scattered Clouds
1:13 AM 71.6 °F 66.2 °F 83% 29.95 in 10.0 mi Calm Calm - N/A   Scattered Clouds
1:34 AM 71.4 °F 66.4 °F 84% 29.94 in 10.0 mi ESE 3.5 mph - N/A   Scattered Clouds
1:53 AM 72.0 °F 66.2 °F 82% 29.94 in 10.0 mi ESE 3.5 mph - N/A   Mostly Cloudy
2:13 AM 71.6 °F 66.7 °F 85% 29.94 in 10.0 mi Calm Calm - N/A   Overcast
2:34 AM 71.6 °F 65.8 °F 82% 29.94 in 10.0 mi Calm Calm - N/A   Scattered Clouds
2:53 AM 71.2 °F 66.2 °F 84% 29.93 in 10.0 mi East 3.5 mph - N/A   Clear
3:13 AM 70.7 °F 65.7 °F 84% 29.92 in 10.0 mi East 3.5 mph - N/A   Clear
3:34 AM 70.7 °F 65.3 °F 83% 29.91 in 10.0 mi East 4.6 mph - N/A   Clear
3:53 AM 70.5 °F 65.3 °F 83% 29.91 in 10.0 mi East 3.5 mph - N/A   Clear
4:13 AM 70.0 °F 65.3 °F 85% 29.90 in 10.0 mi East 3.5 mph - N/A   Mostly Cloudy
4:34 AM 70.2 °F 64.9 °F 83% 29.90 in 10.0 mi ESE 3.5 mph - N/A   Scattered Clouds
4:53 AM 69.8 °F 65.3 °F 86% 29.90 in 10.0 mi Calm Calm - N/A   Scattered Clouds
5:13 AM 70.0 °F 65.3 °F 85% 29.90 in 10.0 mi ESE 4.6 mph - N/A   Scattered Clouds
5:34 AM 69.8 °F 65.3 °F 86% 29.89 in 10.0 mi ESE 3.5 mph - N/A   Scattered Clouds
5:53 AM 69.8 °F 65.3 °F 86% 29.89 in 10.0 mi ESE 4.6 mph - N/A   Scattered Clouds
6:13 AM 69.8 °F 65.5 °F 86% 29.89 in 7.0 mi East 3.5 mph - N/A   Mostly Cloudy
6:34 AM 69.8 °F 65.7 °F 87% 29.88 in 3.0 mi East 4.6 mph - N/A   Overcast
6:53 AM 69.3 °F 66.2 °F 90% 29.88 in 2.5 mi ESE 3.5 mph - N/A   Overcast
7:13 AM 69.3 °F 66.2 °F 90% 29.89 in 1.0 mi ESE 4.6 mph - N/A   Overcast
7:34 AM 69.3 °F 66.4 °F 91% 29.88 in 1.5 mi Calm Calm - N/A   Overcast
7:53 AM 69.1 °F 66.2 °F 91% 29.87 in 1.5 mi North 8.1 mph - N/A   Overcast
8:13 AM 67.8 °F 64.8 °F 90% 29.88 in 0.8 mi NNW 8.1 mph - N/A   Overcast
8:34 AM 66.2 °F 63.5 °F 91% 29.90 in - NNE 11.5 mph 19.6 mph N/A   Unknown
8:53 AM 65.7 °F 63.1 °F 92% 29.89 in 1.8 mi NNE 9.2 mph 18.4 mph N/A   Overcast
9:14 AM 66.6 °F 64.4 °F 93% 29.90 in 4.0 mi Calm Calm - N/A   Overcast
9:33 AM 66.7 °F 64.4 °F 92% 29.91 in 0.2 mi Calm Calm - N/A   Overcast
9:54 AM 67.1 °F 64.8 °F 92% 29.90 in 0.8 mi Calm Calm - N/A   Overcast
10:14 AM 67.5 °F 65.3 °F 93% 29.89 in 1.2 mi Calm Calm - N/A   Overcast
10:33 AM 68.0 °F 65.7 °F 92% 29.88 in 1.8 mi Calm Calm - N/A   Overcast
10:54 AM 68.4 °F 65.8 °F 92% 29.89 in 7.0 mi Calm Calm - N/A   Overcast
11:13 AM 68.7 °F 65.8 °F 90% 29.88 in 10.0 mi ESE 4.6 mph - N/A   Overcast
11:33 AM 69.3 °F 65.5 °F 88% 29.88 in 10.0 mi ESE 3.5 mph - N/A   Overcast
11:53 AM 70.0 °F 65.5 °F 86% 29.89 in 10.0 mi Calm Calm - N/A   Overcast
12:13 PM 70.2 °F 65.7 °F 86% 29.88 in 10.0 mi ESE 5.8 mph - N/A   Overcast
12:34 PM 69.8 °F 65.8 °F 87% 29.88 in 5.0 mi East 6.9 mph - N/A   Overcast
12:53 PM 70.5 °F 66.0 °F 86% 29.88 in 10.0 mi SE 3.5 mph - N/A   Overcast
1:13 PM 70.9 °F 64.9 °F 81% 29.88 in 10.0 mi SE 3.5 mph - N/A   Overcast
1:34 PM 71.1 °F 65.5 °F 82% 29.88 in 10.0 mi Calm Calm - N/A   Overcast
1:53 PM 71.1 °F 64.9 °F 81% 29.87 in 10.0 mi ESE 3.5 mph - N/A   Overcast
2:14 PM 72.0 °F 65.5 °F 80% 29.86 in 10.0 mi Calm Calm - N/A   Overcast
2:34 PM 72.1 °F 64.9 °F 78% 29.85 in 10.0 mi Calm Calm - N/A   Overcast
2:53 PM 72.1 °F 65.3 °F 79% 29.85 in 10.0 mi Calm Calm - N/A   Overcast
3:14 PM 72.0 °F 64.9 °F 78% 29.84 in 10.0 mi ESE 3.5 mph - N/A   Overcast
3:34 PM 72.5 °F 65.1 °F 78% 29.85 in 10.0 mi Calm Calm - N/A   Overcast
3:53 PM 73.4 °F 64.9 °F 75% 29.84 in 10.0 mi Calm Calm - N/A   Mostly Cloudy
4:14 PM 73.4 °F 64.4 °F 73% 29.83 in 10.0 mi Calm Calm - N/A   Mostly Cloudy
4:34 PM 74.3 °F 64.8 °F 72% 29.83 in 10.0 mi Calm Calm - N/A   Mostly Cloudy
4:53 PM 73.9 °F 64.0 °F 71% 29.83 in 10.0 mi Calm Calm - N/A   Overcast
5:14 PM 75.6 °F 64.9 °F 69% 29.82 in 10.0 mi Calm Calm - N/A   Overcast
5:34 PM 74.5 °F 64.8 °F 72% 29.82 in 10.0 mi Calm Calm - N/A   Overcast
5:53 PM 74.5 °F 64.9 °F 72% 29.82 in 10.0 mi Calm Calm - N/A   Overcast
6:14 PM 74.7 °F 65.3 °F 73% 29.81 in 10.0 mi Calm Calm - N/A   Mostly Cloudy
6:34 PM 74.5 °F 64.9 °F 72% 29.81 in 10.0 mi Calm Calm - N/A   Overcast
6:53 PM 74.7 °F 64.8 °F 71% 29.80 in 10.0 mi Calm Calm - N/A   Overcast
7:14 PM 73.6 °F 66.2 °F 78% 29.80 in 10.0 mi Calm Calm - N/A   Mostly Cloudy
7:34 PM 73.8 °F 66.4 °F 78% 29.80 in 10.0 mi ESE 3.5 mph - N/A   Mostly Cloudy
7:53 PM 73.8 °F 66.2 °F 77% 29.80 in 10.0 mi Calm Calm - N/A   Mostly Cloudy
8:13 PM 72.3 °F 66.9 °F 83% 29.80 in 10.0 mi Calm Calm - N/A   Mostly Cloudy
8:34 PM 72.1 °F 66.6 °F 83% 29.80 in 10.0 mi Calm Calm - N/A   Mostly Cloudy
8:53 PM 71.6 °F 66.2 °F 83% 29.80 in 10.0 mi Calm Calm - N/A   Scattered Clouds
9:14 PM 70.9 °F 66.0 °F 85% 29.80 in 10.0 mi Calm Calm - N/A   Clear
9:34 PM 68.4 °F 65.5 °F 90% 29.81 in 4.0 mi Calm Calm - N/A   Clear
9:53 PM 68.5 °F 66.2 °F 92% 29.81 in 7.0 mi Calm Calm - N/A   Mostly Cloudy
10:13 PM 68.9 °F 66.2 °F 91% 29.82 in 7.0 mi Calm Calm - N/A   Mostly Cloudy
10:34 PM 69.3 °F 66.7 °F 92% 29.82 in 5.0 mi Calm Calm - N/A   Overcast
10:53 PM 69.8 °F 67.1 °F 91% 29.83 in 7.0 mi Calm Calm - N/A   Overcast
11:13 PM 69.8 °F 67.3 °F 92% 29.83 in 7.0 mi Calm Calm - N/A   Overcast
11:33 PM 70.0 °F 67.3 °F 91% 29.83 in 7.0 mi Calm Calm - N/A   Overcast
11:54 PM 69.8 °F 67.3 °F 92% 29.83 in 5.0 mi Calm Calm - N/A   Overcast